Weather History for Blackpool, United Kingdom

Change the Weather History Date:

Saturday, November 3, 2012

  Actual Average Record
Temperature  
Mean Temperature 42 °F -  
Max Temperature 48 °F 48 °F 60 °F (2011)
Min Temperature 37 °F 41 °F 30 °F (2006)
Degree Days  
Heating Degree Days 22    
Moisture  
Dew Point 37 °F    
Average Humidity 81    
Maximum Humidity 100    
Minimum Humidity 49    
Precipitation  
Precipitation 0.12 in - - ()
Sea Level Pressure  
Sea Level Pressure 29.31 in    
Wind  
Wind Speed 12 mph ()    
Max Wind Speed 22 mph    
Max Gust Speed 22 mph    
Visibility 5.9 miles    
Events Rain    
Averages and records for this station are not official NWS values.
T = Trace of Precipitation, MM = Missing Value Source: Averaged Metar Reports

Daily Weather History Graph

Daily Weather History Graph

Search for Another Location

Airport:

Trip Planner

Search our weather history database for the weather conditions in past years. The results will help you decide how hot, cold, wet, or windy it might be!

Date:

Astronomy

Nov. 03, 2012 Rise Set
Actual Time 7:16 AM GMT 4:34 PM GMT
Civil Twilight 6:38 AM GMT 5:11 PM GMT
Nautical Twilight 5:57 AM GMT 5:53 PM GMT
Astronomical Twilight 5:16 AM GMT 6:34 PM GMT
Moon 7:45 PM GMT (11/3) 11:28 AM GMT (11/3)
Length of Visible Light 10h 32m
Length of Day
9h 17m
Waning Gibbous, 82% of the Moon is Illuminated
Nov 3
Waning Gibbous
Nov 7
Last Quarter
Nov 13
New
Nov 20
First Quarter
Nov 28
Full

Hourly Weather History & Observations

Time (GMT) Temp. Windchill Dew Point Humidity Pressure Visibility Wind Dir Wind Speed Gust Speed Precip Events Conditions
2:50 AM 42 °F - 39 °F 84%  in - South 11.5 mph - -  
5:50 AM 38 °F - 36 °F 88%  in - SE 11.5 mph - -  
6:20 AM 37.4 °F 29.8 °F 37.4 °F 100% 29.24 in - SSE 11.5 mph - N/A   Clear
6:50 AM 39.2 °F 32.0 °F 37.4 °F 93% 29.24 in 6.2 mi SSE 11.5 mph - N/A   Scattered Clouds
7:50 AM 39.2 °F 32.5 °F 37.4 °F 93% 29.27 in 6.2 mi SSE 10.4 mph - N/A   Scattered Clouds
8:20 AM 39.2 °F 35.0 °F 37.4 °F 93% 29.27 in 3.7 mi Variable 5.8 mph - N/A Rain Rain Showers
8:50 AM 38 °F - 36 °F 90%  in - East 4.6 mph - -  
8:50 AM 37.4 °F - 37.4 °F 100% 29.27 in 3.7 mi Variable 2.3 mph - N/A Rain Rain Showers
9:20 AM 39.2 °F 35.9 °F 39.2 °F 100% 29.27 in 4.3 mi SE 4.6 mph - N/A Rain Light Rain Showers
9:50 AM 39.2 °F 33.6 °F 39.2 °F 100% 29.27 in 6.2 mi SE 8.1 mph - N/A Rain Light Rain Showers
10:20 AM 41.0 °F 32.5 °F 41.0 °F 100% 29.27 in 6.2 mi West 17.3 mph - N/A   Scattered Clouds
10:50 AM 46.4 °F 39.5 °F 37.4 °F 71% 29.30 in 6.2 mi West 17.3 mph - N/A   Scattered Clouds
11:20 AM 46.4 °F 39.2 °F 37.4 °F 71% 29.30 in 6.2 mi West 18.4 mph - N/A   Scattered Clouds
11:50 AM 46 °F - 34 °F 52%  in - West 18.4 mph - -  
11:50 AM 46.4 °F 39.2 °F 35.6 °F 66% 29.30 in 6.2 mi West 18.4 mph - N/A   Scattered Clouds
12:20 PM 48.2 °F - 35.6 °F 62% 29.30 in 6.2 mi West 16.1 mph - N/A   Scattered Clouds
12:50 PM 48.2 °F - 37.4 °F 66% 29.30 in 6.2 mi WSW 18.4 mph - N/A   Scattered Clouds
1:20 PM 46.4 °F 39.5 °F 35.6 °F 66% 29.30 in 6.2 mi West 17.3 mph - N/A Rain Light Rain Showers
1:50 PM 48.2 °F - 39.2 °F 71% 29.30 in 6.2 mi WSW 19.6 mph - N/A   Scattered Clouds
2:20 PM 48.2 °F - 35.6 °F 62% 29.30 in 6.2 mi WSW 19.6 mph - N/A   Partly Cloudy
2:50 PM 47 °F - 34 °F 49%  in - SW 20.7 mph - -  
2:50 PM 46.4 °F 39.2 °F 37.4 °F 71% 29.33 in 6.2 mi WSW 18.4 mph - N/A   Partly Cloudy
3:20 PM 46.4 °F 39.5 °F 35.6 °F 66% 29.33 in 6.2 mi WSW 17.3 mph - N/A   Scattered Clouds
3:50 PM 46.4 °F 38.5 °F 35.6 °F 66% 29.33 in 6.2 mi SW 21.9 mph - N/A   Scattered Clouds
4:20 PM 42.8 °F 35.1 °F 35.6 °F 76% 29.33 in 6.2 mi SW 16.1 mph - N/A   Scattered Clouds
4:50 PM 42.8 °F 35.8 °F 37.4 °F 81% 29.36 in 6.2 mi SSW 13.8 mph - N/A Rain Light Rain Showers
5:20 PM 42.8 °F 37.0 °F 35.6 °F 76% 29.36 in 6.2 mi SW 10.4 mph 21.9 mph N/A Rain Light Rain Showers
5:50 PM 41 °F - 36 °F 77%  in - South 11.5 mph - -  
5:50 PM 41.0 °F 33.9 °F 37.4 °F 87% 29.36 in 6.2 mi South 12.7 mph - N/A Rain Light Rain Showers
6:50 PM 41.0 °F 32.8 °F 37.4 °F 87% 29.36 in 6.2 mi South 16.1 mph - N/A   Mostly Cloudy
7:20 PM 41.0 °F 31.6 °F 37.4 °F 87% 29.36 in 6.2 mi South 20.7 mph - N/A   Mostly Cloudy
7:50 PM 39.2 °F 30.2 °F 37.4 °F 93% 29.36 in 6.2 mi South 17.3 mph - N/A   Mostly Cloudy
8:20 PM 39.2 °F 30.8 °F 37.4 °F 93% 29.36 in 6.2 mi SSE 15.0 mph - N/A   Mostly Cloudy
8:50 PM 38 °F - 35 °F 85%  in - SSE 13.8 mph - -  
9:20 PM 37.4 °F 28.9 °F 35.6 °F 93% 29.36 in 6.2 mi SSE 13.8 mph - N/A   Scattered Clouds
11:50 PM 38 °F - 35 °F 85%  in - SSE 15.0 mph - -